Location: ??????
(38.3184°N, 23.6932°E)
Time: 01:35:13
(UTC+00:00)

H-2A R/B - Pass Details

Date: 16 October 2021
Orbit: 528 x 650 km, 98.3° (Epoch: 04 December)

Event Time Altitude Azimuth Distance (km) Brightness Sun altitude
Rises 17:12:05 0° 170° (S) 2,943 5.9 -17.7°
Reaches altitude 10° 17:14:18 10° 171° (S) 2,029 5.1 -18.1°
Maximum altitude 17:18:44 75° 258° (WSW) 656 2.7 -19.0°
Drops below altitude 10° 17:23:04 10° 344° (NNW) 1,986 5.4 -19.8°
Sets 17:25:14 0° 346° (NNW) 2,877 6.2 -20.3°
